Weather Roundup
Issued by NWS Chicago, IL

Home | Current Version | Previous Version | Graphics & Text | Print | Product List | Glossary On
Versions: 1 2 3 4 5 6 7 8 9 10 11 12 13 14 15 16 17 18 19 20 21 22 23 24 25 26 27 28 29 30 31 32 33 34 35 36 37 38 39 40 41 42 43 44 45 46 47 48 49 50
000
NZUS59 KLOT 252303
HRRLOT

CHICAGO AREA WEATHER ROUNDUP
NATIONAL WEATHER SERVICE CHICAGO/ROMEOVILLE IL
600 PM CDT SAT MAR 25 2017

NOTE: "FAIR" INDICATES FEW OR NO CLOUDS BELOW 12,000 FEET WITH NO
SIGNIFICANT WEATHER AND/OR OBSTRUCTIONS TO VISIBILITY.

* THESE STATIONS ARE NOT UNDER NWS QUALITY CONTROL. THEY ALSO MAY NOT
  REPORT WEATHER SUCH AS PRECIPITATION OR FOG.

ILZ005-006-012>014-019>023-260000-
NORTHEAST ILLINOIS

CITY           SKY/WX    TMP DP  RH WIND       PRES   REMARKS
OHARE          RAIN      43  41  93 N8        29.98F FOG
MIDWAY         LGT RAIN  45  44  97 N13G21    29.97F FOG
AURORA         CLOUDY    46  43  89 NE16      29.96F FOG
LANSING*       CLOUDY    48  48 100 N5        29.96F FOG
JOLIET*        CLOUDY    49  49  98 NE9       29.95F FOG
WAUKEGAN       CLOUDY    40  40 100 NE10      30.01F FOG
DUPAGE AIRPORT CLOUDY    43  43 100 NE12      29.97F FOG
WHEELING       LGT RAIN  41  41 100 NE7       30.01S FOG
MORRIS*        CLOUDY    50  48  93 NE7       29.93F FOG
NORTHERLY ISL    N/A     43  41  93 MISG        N/A
$$

WIZ051-052-058>065-066-070>072-260000-
SOUTHEAST WISCONSIN

CITY           SKY/WX    TMP DP  RH WIND       PRES   REMARKS
MILWAUKEE      CLOUDY    39  37  92 NE13      30.06F
KENOSHA*       CLOUDY    40  39  97 NE12      30.03F FOG
RACINE*        CLOUDY    39  37  92 NE12      30.07S
WAUKESHA       CLOUDY    36  36 100 E15G21    30.06F
WEST BEND      CLOUDY    36  36 100 NE15      30.08S
$$

INZ001>003-010>013-019-020-260000-
NORTHWEST INDIANA

CITY           SKY/WX    TMP DP  RH WIND       PRES   REMARKS
GARY*          LGT RAIN  48  46  93 NW5       29.97F
MICHIGAN CITY* NOT AVBL
RENSSELAER*    NOT AVBL
VALPARAISO     LGT RAIN  59  55  87 E8        29.97S FOG
$$

LMZ740>746-260000-
SOUTHERN LAKE MICHIGAN

STATION/POSITION TIME  SKY/WX   TEMP WIND        PRES    VSBY
                                AIR  DIR/SP/G
                 (UTC)          (F)  (DEG/KT/KT) (MB)    (MI)
HARRISON CRIB    2240                350/ 17/ 18   N/A
BURNHAM HARBOR   2300                350/ 10/ 14   N/A
CALUMET HARBOR   2230            42  330/  9/ 13 1014.7R
BURNS HARBOR     2240            44  270/  7/ 12 1015.2S
MICHIGAN CITY    2240            58   90/ 11/ 14   N/A
$$

ABBREVIATIONS USED IN REMARKS
   TC - TEMPERATURE IN CELSIUS
  WCI - WIND CHILL INDEX
   HX - HEAT INDEX
  VSB - VISIBILITY
$$



USA.gov is the U.S. government's official web portal to all federal, state and local government web resources and services.